User: anonymous   Login
Location: Caltech
(34.1382°N, 118.1253°W)
Time: 13:10:05
(UTC-07:00)
Language:

PAYLOAD A - Orbit

View from above orbital plane
View from above orbital plane
View from above satellite
View from above satellite

Ground track
Ground track

The orbit data is extracted from the following two-line orbital elements,

1 27840U 03031A   18114.97538480 -.00000001  00000-0  13332-4 0  9995
2 27840  98.2298 104.4177 0096968 259.3377  99.6880 14.38901716778146
Epoch (UTC): 24 April 2018 23:24:33
Eccentricity: 0.0096968
inclination: 98.2298°
perigee height: 693 km
apogee height: 831 km
right ascension of ascending node: 104.4177°
argument of perigee: 259.3377°
revolutions per day: 14.38901716
mean anomaly at epoch: 99.6880°
orbit number at epoch: 77814

The dashed part of the orbit path shows where the satellite is in the earth's shadow,  

DLR